Theta_e
306 306 306 307 307 308 308 308 308 307 307 306 306 308 308 308 308 308 308 308 308 307 307 306 306 307 308 308 308 308 308 308 307 307 307 306 306 307 306 305 306 306 308 310 311 313 313 311 311 310 311 312 310 311 312 312 311 311 314 316 314 311 310 309 307 307 307 306 306 306 307 307 307 308 306 306 306 303 301 299 297 297 296 295 295 295 295 295
307 306 306 307 308 308 308 308 308 308 307 307 306 308 308 308 308 309 308 308 308 308 308 307 306 307 307 308 308 309 309 308 307 307 307 307 307 306 306 305 306 306 307 308 309 311 311 310 310 310 311 311 311 311 312 312 311 312 313 314 312 310 308 307 305 305 305 305 305 306 306 306 306 307 307 306 306 304 302 301 298 296 295 295 295 295 294 294
307 306 306 307 308 308 308 308 308 308 308 308 307 307 307 308 308 308 307 307 307 308 308 308 307 307 307 308 309 309 310 309 307 307 307 308 308 307 306 305 305 306 307 307 308 309 310 311 310 310 311 311 311 312 312 311 311 313 312 311 310 309 307 305 304 304 304 305 305 305 304 305 306 306 307 306 305 302 302 301 299 296 295 295 294 294 293 293
307 306 307 308 308 308 308 308 308 307 307 308 308 307 306 307 307 307 307 308 307 307 307 307 307 308 307 308 309 308 311 311 307 306 307 308 308 307 306 305 305 306 308 309 309 310 310 311 311 311 312 312 312 312 311 310 312 312 311 309 308 308 307 304 304 304 304 304 304 304 304 305 305 304 304 304 303 300 299 299 298 296 295 294 293 293 292 292
308 307 308 308 307 308 308 308 308 307 306 307 308 308 307 307 307 308 309 309 308 307 307 307 307 307 307 308 309 309 311 311 307 307 308 308 308 307 306 305 305 306 308 309 310 310 310 311 311 312 312 311 312 310 309 310 311 311 309 308 307 307 306 305 304 304 304 304 303 303 303 304 304 301 301 301 300 298 297 297 296 295 294 293 293 292 292 291
308 308 308 308 308 308 308 308 308 307 306 307 308 308 308 308 308 308 308 308 307 307 307 308 307 307 308 308 309 310 310 309 306 306 307 307 307 307 306 305 306 306 308 309 309 309 310 310 311 313 312 311 311 310 310 311 311 311 308 307 307 307 306 305 304 303 304 304 303 303 303 304 303 299 298 298 297 296 295 295 294 294 293 292 292 291 291 290
308 308 308 308 308 308 308 308 308 307 306 307 308 308 309 309 308 307 306 306 307 307 307 307 308 308 308 309 308 308 308 306 306 306 306 305 306 306 305 306 306 306 307 308 309 309 309 310 311 312 311 311 311 309 310 311 310 310 309 307 307 306 305 304 304 303 304 304 302 302 302 303 302 299 297 297 296 295 294 294 293 292 292 291 291 290 290 290
308 308 308 308 308 308 308 308 307 306 306 306 308 308 308 307 306 306 306 306 306 306 307 307 308 309 309 311 310 307 306 306 306 306 305 305 305 305 305 305 306 306 305 306 307 308 309 309 310 310 310 310 310 310 310 310 309 309 309 307 306 306 304 304 304 303 304 303 302 302 302 301 300 298 296 296 295 294 293 293 292 292 291 291 290 290 290 289
309 308 308 308 308 307 308 307 307 306 305 306 306 307 306 306 306 306 306 306 306 306 306 307 307 308 309 312 312 307 305 305 306 306 305 305 305 305 305 305 306 306 305 305 306 306 307 308 309 309 310 309 310 310 309 309 309 308 307 306 306 305 304 304 304 303 303 303 301 302 302 300 299 298 295 294 294 293 292 292 291 291 290 290 290 289 289 289
308 308 308 308 307 307 307 307 307 306 305 306 306 306 306 306 305 306 306 306 306 306 307 307 307 308 310 311 310 306 305 306 306 306 305 305 305 305 305 305 306 305 304 304 305 305 307 307 308 309 310 310 310 308 307 308 308 307 307 306 306 305 304 304 303 303 303 302 302 302 302 301 300 300 296 294 293 293 292 291 291 290 290 290 289 289 289 288
308 308 308 307 307 307 307 307 306 306 306 306 306 306 306 306 306 305 306 306 306 307 307 307 307 308 309 308 306 305 305 306 306 305 305 305 305 305 305 304 305 305 304 304 304 305 307 307 307 309 310 310 309 307 305 307 308 307 306 307 307 305 305 305 303 303 303 302 302 301 302 301 300 299 296 294 293 292 292 291 290 290 290 289 289 288 288 288
308 308 308 308 307 307 307 307 306 306 306 306 306 306 306 306 306 306 307 306 306 307 307 307 309 308 308 307 304 304 305 305 305 305 305 305 305 305 304 304 304 304 304 304 304 305 307 307 307 308 309 309 310 309 306 306 307 307 307 309 308 305 305 305 303 303 303 302 301 302 302 301 299 297 296 294 293 292 292 291 290 290 289 289 288 288 288 287
308 308 308 307 307 307 307 307 306 306 306 306 306 306 306 306 306 306 306 306 306 306 306 307 309 308 307 306 303 304 305 305 305 305 305 306 306 304 304 304 304 304 304 304 305 306 307 307 307 307 307 309 309 308 307 305 307 308 308 309 308 307 307 305 304 304 303 302 301 302 304 300 297 296 295 294 293 292 291 291 290 290 289 288 288 288 287 287
308 309 308 306 307 307 307 307 306 306 306 306 306 306 306 306 306 306 306 306 306 307 307 308 309 308 307 305 304 305 305 305 305 305 305 305 306 305 304 304 305 304 304 304 305 306 306 306 307 306 306 308 307 306 307 307 307 308 308 309 307 306 307 304 304 304 303 303 302 302 304 301 297 296 296 294 293 292 291 291 290 289 289 288 288 288 287 287
308 309 307 306 307 307 307 306 306 306 306 306 306 306 306 306 306 306 306 307 307 308 308 309 310 309 306 305 305 305 305 305 306 305 305 305 305 305 304 304 305 305 305 305 306 306 307 306 305 305 305 306 308 309 310 309 307 307 308 309 307 305 307 305 303 304 303 303 302 302 303 301 297 297 296 294 293 293 292 291 290 289 289 289 288 288 288 287
308 308 307 307 307 307 306 306 306 306 306 306 306 306 307 307 307 307 307 307 307 308 308 309 309 308 307 306 305 305 305 305 305 306 305 305 306 305 305 304 305 306 305 306 306 306 307 307 306 305 304 305 306 309 311 309 307 307 307 307 306 305 305 305 304 304 302 303 302 302 303 301 298 297 296 295 294 293 292 291 290 290 289 289 289 288 288 288
308 308 307 307 307 306 306 306 306 306 306 306 307 307 307 307 307 307 307 308 307 307 308 308 308 308 307 306 306 305 305 304 305 306 305 305 306 306 306 306 305 305 306 307 308 307 307 307 307 305 304 304 304 307 311 308 305 305 306 306 305 304 304 305 305 303 303 303 302 302 302 300 298 297 296 295 294 293 292 291 290 290 289 289 289 289 288 288
308 307 307 307 307 306 307 307 306 306 307 306 307 307 307 307 307 307 307 309 309 309 310 309 309 311 308 305 305 305 304 305 305 305 306 306 307 307 307 308 307 306 306 308 307 307 306 306 306 305 304 303 303 305 307 305 304 305 305 305 304 303 304 304 304 303 304 303 302 302 302 299 297 297 297 295 294 293 292 291 290 290 289 289 289 289 289 289
308 307 307 307 307 307 307 306 307 307 306 307 307 307 308 307 307 307 307 309 310 311 312 308 308 310 307 305 304 305 305 304 304 305 306 306 307 308 308 308 308 307 308 309 307 306 306 305 304 304 303 303 303 304 304 304 304 305 305 305 303 303 304 304 303 303 304 303 302 302 302 299 297 297 297 295 294 293 292 291 290 290 289 289 289 289 289 290
307 307 307 307 307 307 307 307 307 307 307 307 308 310 313 311 309 307 306 307 307 307 308 307 306 306 305 304 305 305 306 305 305 305 306 307 307 308 308 309 309 308 310 311 309 306 304 304 304 303 304 303 303 304 303 303 304 306 305 304 303 303 303 302 302 303 303 303 301 302 302 299 296 296 296 295 294 293 292 291 290 290 289 289 289 289 290 290
308 307 307 307 306 307 307 307 308 308 308 308 309 311 315 315 312 308 306 306 305 305 306 305 305 305 304 304 304 305 305 305 305 305 306 307 307 308 308 309 310 309 309 310 308 306 304 304 304 303 303 303 303 304 303 303 305 305 304 303 303 303 302 301 302 303 303 302 302 302 301 298 295 295 295 295 293 292 292 291 290 290 289 290 290 290 290 289
307 307 307 306 307 307 307 308 308 308 308 308 309 310 311 312 311 310 308 307 306 306 306 305 305 305 304 304 305 305 305 305 305 305 306 307 308 309 309 309 309 309 309 309 309 307 304 303 304 303 302 303 304 304 303 303 305 305 303 303 302 302 301 301 303 303 302 302 302 301 300 296 294 294 294 294 293 292 292 291 290 290 289 290 290 290 290 289
307 307 306 307 307 307 308 308 308 308 308 308 308 308 308 309 309 310 310 309 308 307 306 306 305 304 305 305 305 305 304 304 304 304 304 306 306 307 308 308 309 308 307 307 307 306 305 303 303 302 303 304 305 304 302 302 304 304 303 302 301 300 301 300 301 302 302 302 302 301 299 295 293 293 292 292 292 291 291 290 289 289 289 289 290 290 290 289
306 306 307 307 307 307 307 307 307 308 308 308 308 308 308 308 309 311 311 311 310 308 306 306 306 305 305 304 305 306 305 303 303 303 303 305 306 306 307 307 309 308 307 307 306 304 304 303 302 303 305 305 305 303 301 301 302 303 303 301 300 300 300 300 300 301 301 303 303 301 299 295 293 292 291 291 291 290 290 290 289 289 289 290 290 290 289 288
306 307 307 307 308 308 307 307 308 308 308 308 309 308 308 308 309 309 312 313 312 309 309 308 307 305 305 305 305 306 306 304 303 303 303 304 306 307 307 307 307 308 308 308 307 305 305 303 303 305 305 304 304 303 301 300 301 303 303 301 300 300 300 300 301 301 300 301 303 301 299 297 295 293 292 291 291 290 289 289 289 290 290 290 290 289 288 288
307 308 308 308 308 308 308 310 308 308 309 308 308 309 308 309 308 308 313 317 314 311 311 310 307 307 305 305 306 306 307 307 304 303 303 304 306 307 308 307 306 307 308 307 306 305 305 304 304 305 304 304 304 302 301 301 300 302 304 302 301 300 300 301 301 301 301 300 302 301 299 297 296 293 292 291 290 290 290 289 290 290 291 290 289 289 288 287
308 308 308 308 308 308 310 312 309 308 311 309 308 308 308 309 308 308 314 319 315 312 312 309 308 307 306 305 306 307 310 309 306 304 303 304 305 306 308 308 307 307 306 305 307 306 305 304 304 304 304 303 302 301 301 300 300 302 303 302 301 300 301 301 301 301 301 300 301 302 299 298 298 294 292 292 291 290 290 290 291 291 291 290 289 288 287 286
308 308 308 308 308 308 309 310 308 308 310 309 308 308 309 309 308 311 317 318 313 311 310 309 307 306 306 306 305 306 307 307 307 305 303 304 305 305 308 307 307 308 306 308 309 305 304 304 303 304 303 301 300 300 300 300 300 302 303 301 301 301 302 302 302 301 300 300 301 301 299 298 298 295 292 292 291 291 292 292 292 291 290 289 289 288 287 285
308 308 308 308 308 308 308 308 308 308 308 308 308 308 309 308 308 315 319 315 312 311 309 309 308 306 308 309 307 306 306 305 306 306 304 304 304 305 306 305 306 307 306 308 309 305 302 301 302 304 301 300 300 300 300 301 300 301 302 301 301 302 303 303 302 301 300 301 301 299 298 297 297 295 293 292 293 293 293 292 291 291 290 289 288 287 286 285
308 308 308 308 308 308 308 308 307 308 308 307 308 308 308 310 313 317 316 312 313 312 309 309 308 306 309 311 309 307 307 306 305 306 306 305 304 304 304 304 305 307 306 305 306 304 301 300 302 303 300 299 300 299 300 301 300 301 301 301 301 302 302 302 301 300 301 302 301 299 298 297 297 296 295 294 294 293 292 291 291 290 289 289 288 286 285 284
308 308 308 308 308 308 308 307 308 308 308 308 309 308 310 315 317 316 312 311 314 313 310 311 309 307 309 311 309 307 307 307 305 306 307 305 303 303 304 303 304 308 307 306 305 304 303 303 303 301 299 299 300 300 302 301 301 301 301 299 300 302 301 301 301 301 301 303 300 298 298 297 297 297 296 294 293 291 291 291 290 290 289 288 287 285 284 283
307 307 307 307 307 307 307 308 308 307 308 309 308 309 314 317 316 314 312 311 314 313 310 310 309 307 308 309 307 306 307 307 306 307 308 307 304 301 303 302 303 308 309 306 306 305 304 303 302 301 300 300 300 301 301 302 301 301 299 299 301 302 301 301 302 302 302 302 300 298 298 297 296 296 295 293 292 291 290 290 290 289 289 287 286 285 284 283
307 307 307 307 307 307 307 308 308 308 308 308 309 312 316 316 314 313 311 311 312 311 308 308 308 307 308 309 307 305 306 306 306 307 308 308 305 303 303 301 301 306 308 306 305 305 305 303 301 302 301 299 299 298 299 300 300 299 298 299 300 300 301 302 301 301 302 301 299 298 298 298 298 296 294 293 292 291 290 290 290 289 288 287 286 285 283 282
306 307 307 307 307 307 307 308 307 308 308 308 312 315 315 313 312 311 310 310 309 308 308 307 307 308 309 308 306 305 306 307 306 307 307 307 305 303 303 301 301 302 303 305 303 303 306 307 303 302 301 299 299 297 298 299 299 299 298 298 300 299 299 301 301 300 300 298 298 298 298 299 299 296 294 293 292 291 290 290 290 289 288 287 286 284 283 282
306 307 306 307 307 307 307 307 307 308 308 310 314 316 315 313 311 311 310 309 308 308 309 307 307 310 310 307 305 304 306 307 307 306 306 305 304 303 301 300 300 300 302 306 304 301 307 308 302 300 299 298 298 298 298 299 299 300 299 299 299 298 297 299 299 298 298 297 298 299 299 300 298 295 293 292 292 291 290 290 290 289 288 287 285 284 283 282
306 306 307 307 307 308 308 307 308 307 308 313 317 317 315 311 309 311 311 309 308 309 310 309 309 311 310 308 306 304 305 306 306 305 305 303 303 302 301 299 299 299 300 303 303 302 305 307 302 299 298 296 297 298 298 299 299 299 300 298 297 296 295 298 298 297 298 298 299 299 299 299 297 295 293 292 292 292 291 291 290 289 288 286 285 284 282 281
306 306 306 307 307 307 308 307 308 308 308 316 320 315 310 306 304 307 307 306 307 307 309 311 312 311 310 309 308 305 305 306 306 305 305 305 304 302 301 300 298 298 298 300 303 301 301 304 302 301 301 297 296 298 297 297 298 299 299 297 296 296 295 296 298 298 298 298 299 298 298 298 298 297 294 293 293 293 292 290 289 288 287 286 285 283 282 281
306 306 306 307 307 307 307 307 307 308 310 316 316 309 306 305 304 304 304 305 306 306 308 310 311 310 308 308 307 304 305 308 307 306 305 306 305 302 301 300 299 297 296 298 301 300 300 304 304 302 302 298 296 297 298 297 297 298 298 296 296 298 299 297 298 299 299 298 298 297 297 297 298 298 295 294 293 292 291 290 289 287 286 285 284 283 282 281
306 308 307 306 307 307 308 308 307 310 314 317 315 309 306 306 304 302 303 304 305 307 309 309 309 308 307 308 307 304 306 307 306 306 306 306 306 302 300 300 299 298 297 297 299 299 299 303 304 302 300 298 296 297 299 298 297 296 297 296 296 298 299 297 297 298 299 298 297 297 297 297 298 297 295 294 293 292 291 290 288 287 286 285 284 282 281 280
306 310 309 306 308 308 307 307 308 312 315 314 313 310 307 305 303 301 301 303 304 305 307 308 307 307 307 307 306 305 306 306 304 306 306 304 305 303 299 298 299 298 297 297 297 298 299 301 304 303 300 300 299 298 299 299 298 297 298 298 296 297 298 297 296 297 297 297 297 296 297 297 297 296 295 294 293 292 291 289 288 287 286 285 283 282 281 280
307 312 310 305 306 306 306 309 309 310 312 309 308 308 306 306 305 302 300 302 303 302 304 307 307 307 306 306 306 305 305 305 304 305 305 303 304 304 300 298 299 298 297 298 297 298 299 300 302 302 302 302 300 296 297 298 298 298 298 298 297 297 298 297 297 297 297 297 296 295 295 295 295 295 295 294 293 292 291 289 287 286 286 284 283 282 281 280
309 314 310 305 306 306 309 311 309 308 309 307 307 307 306 306 305 303 301 301 303 302 302 305 307 307 306 306 306 304 305 305 304 304 305 303 303 303 300 298 297 297 297 299 297 296 297 298 300 302 302 300 297 295 295 296 297 297 297 296 296 296 297 297 298 297 296 296 295 295 295 295 295 295 294 294 293 292 291 289 287 286 285 284 283 282 281 280
309 310 307 305 306 306 311 314 310 307 306 304 304 304 304 305 304 303 302 302 303 304 304 305 306 306 306 305 304 305 305 305 305 304 304 303 302 300 297 296 296 296 297 299 298 295 296 299 300 303 302 297 295 294 294 294 295 296 296 295 296 296 296 296 296 295 294 295 295 295 295 295 296 295 295 295 294 292 291 289 287 286 285 284 283 281 281 280
307 306 305 306 306 306 314 318 313 307 304 304 304 303 303 304 303 303 304 304 303 303 304 305 304 304 305 304 304 305 304 305 306 304 302 303 302 297 296 296 296 296 297 298 298 296 299 301 301 303 305 302 299 299 297 296 295 296 296 295 296 296 295 295 293 292 294 295 294 294 295 296 297 297 295 295 293 292 291 289 287 286 285 283 282 281 280 279
307 308 306 305 305 306 312 315 311 307 305 305 306 304 304 303 302 303 304 303 302 302 304 305 303 303 303 303 303 303 302 303 305 302 300 301 300 296 295 295 296 297 296 295 295 295 299 301 300 302 307 307 306 306 304 301 299 298 296 295 295 296 295 295 294 293 295 295 294 295 296 296 296 297 296 295 293 292 291 289 288 286 285 283 282 281 280 279
309 313 311 308 305 305 308 308 307 307 306 307 307 306 306 306 303 302 303 303 301 301 303 303 302 302 303 304 304 304 302 302 303 301 300 301 300 297 296 295 295 296 297 295 293 294 297 299 298 300 303 305 305 305 303 301 300 299 298 297 296 295 295 295 295 295 297 296 295 296 296 296 296 296 295 295 293 293 291 289 288 286 285 283 282 281 280 279
310 314 313 311 310 308 307 306 306 306 306 308 308 306 307 307 304 302 302 302 302 301 302 302 302 304 305 305 305 306 305 303 302 301 300 299 299 297 296 296 295 296 296 294 293 294 297 300 300 300 301 302 302 300 299 299 298 298 299 299 298 294 293 294 294 296 297 296 296 297 296 296 296 295 295 294 293 292 290 288 287 286 285 283 282 281 280 279
311 311 306 308 313 312 310 308 307 307 307 307 306 306 307 307 305 304 303 301 301 301 303 304 304 305 306 305 306 306 305 305 304 302 301 299 298 298 297 297 296 296 296 294 293 293 296 300 301 299 299 299 298 297 298 298 297 297 298 299 299 295 294 294 295 295 295 295 296 296 296 295 295 294 294 293 293 291 289 288 288 286 285 283 282 281 280 279
308 308 304 305 309 308 308 309 307 307 308 306 305 306 307 307 307 306 303 302 302 302 303 307 307 305 306 305 304 305 305 306 305 304 303 302 300 299 300 300 298 296 295 295 293 292 296 300 300 299 298 298 297 298 299 298 298 298 299 299 299 298 295 295 295 294 294 294 294 294 294 294 294 294 293 293 293 291 289 289 288 286 285 283 281 280 280 279
306 308 305 305 305 303 304 307 307 309 308 306 307 308 306 308 308 306 303 304 306 304 302 306 308 306 305 304 304 305 305 304 304 303 302 304 303 301 301 302 300 296 295 296 294 293 296 300 300 298 298 299 300 301 302 301 300 299 298 298 298 297 297 296 295 294 294 294 294 293 293 293 293 294 293 293 292 291 289 289 288 286 284 282 281 280 279 279
306 307 305 307 307 303 303 305 306 311 310 307 309 309 306 309 309 306 304 303 304 305 303 304 307 306 304 304 305 305 302 301 302 300 299 301 301 300 300 300 299 298 296 296 295 294 295 298 299 298 299 301 301 302 302 301 300 299 299 299 297 297 297 297 297 296 296 296 295 294 294 294 295 294 293 293 292 291 289 289 287 286 284 282 281 280 279 278
306 306 305 309 309 304 303 305 305 310 311 308 309 308 307 308 307 305 307 304 300 302 303 303 305 305 305 306 306 303 300 299 299 298 297 298 298 298 298 297 298 299 298 296 296 296 296 297 298 298 300 302 301 301 300 299 302 306 304 302 301 298 297 297 296 296 296 295 295 295 295 296 295 294 293 293 292 290 289 288 287 285 284 282 281 280 279 278
Wind_Speed
6 6 7 7 8 10 12 13 14 12 10 10 10 11 12 13 13 12 12 11 11 13 14 17 20 22 21 21 20 19 21 21 19 23 26 24 20 18 18 17 15 12 8 9 11 11 7 5 3 4 2 1 6 7 6 6 11 9 3 3 5 4 5 6 7 7 7 7 11 16 18 14 9 10 14 11 11 18 18 19 19 18 18 17 14 11 10 8
7 7 8 7 7 9 11 13 14 13 11 9 9 10 11 12 11 10 8 7 6 6 8 11 14 15 16 18 15 15 18 17 19 26 26 19 17 18 16 16 16 14 11 9 11 10 9 7 5 6 3 5 8 7 7 7 10 6 2 4 4 4 7 10 10 10 9 9 11 15 18 15 11 12 12 9 11 19 15 11 15 18 18 15 13 12 11 10
8 8 8 8 7 9 10 11 13 13 12 10 9 8 9 9 9 9 10 9 8 6 5 4 7 9 13 15 12 12 11 12 19 24 22 18 18 18 17 17 16 15 15 14 13 11 10 7 7 6 3 8 9 8 10 10 8 7 5 4 4 5 9 13 13 13 12 11 13 14 17 16 14 15 11 8 11 19 15 10 12 16 15 14 14 13 12 13
9 8 9 9 7 8 9 10 11 11 11 10 9 9 9 9 11 12 11 10 9 8 5 1 4 8 11 10 7 6 3 8 19 22 17 18 18 18 18 17 15 15 16 15 14 12 9 5 6 5 5 7 9 11 11 10 7 7 7 3 5 6 7 11 12 13 12 11 13 14 14 12 15 21 17 13 9 11 15 15 15 15 14 13 13 13 13 14
8 8 9 9 7 7 8 9 9 10 11 10 10 10 11 12 11 10 7 6 8 8 7 6 6 8 9 4 1 6 5 1 13 19 16 17 17 18 18 16 14 15 16 14 12 11 8 3 2 4 7 9 9 9 9 10 6 4 8 7 8 7 5 9 11 10 10 11 13 12 13 10 11 20 21 20 11 6 12 16 17 14 13 13 13 13 14 15
8 8 9 9 8 8 8 8 8 9 10 10 9 10 11 11 9 7 6 6 7 10 14 17 16 13 9 6 6 8 6 3 11 18 17 18 17 17 17 15 13 14 15 14 12 11 10 7 5 6 8 8 8 7 6 10 8 3 6 9 8 8 7 7 9 9 6 9 12 14 17 10 13 18 19 22 15 10 13 14 16 16 14 14 14 14 14 14
9 9 9 10 8 9 9 9 9 9 10 11 10 10 10 8 7 7 8 8 7 10 16 21 23 21 18 16 16 21 20 11 13 17 17 18 16 17 16 13 15 16 15 15 14 11 13 13 9 9 8 6 6 7 5 9 14 6 3 6 7 8 7 5 9 13 8 9 16 22 19 11 16 12 14 20 14 12 12 12 14 14 14 14 14 14 13 12
8 8 9 10 9 10 9 9 9 9 11 13 12 11 10 8 9 8 8 7 7 9 11 14 17 16 15 13 13 22 21 13 15 17 17 17 16 16 14 13 17 18 17 17 16 12 13 14 11 9 7 5 5 6 7 7 11 7 3 4 5 7 6 4 10 18 11 10 21 25 13 17 19 15 17 15 12 13 13 13 13 14 14 13 13 12 10 10
8 8 9 10 11 10 9 9 10 10 11 13 13 12 11 10 9 9 10 9 9 8 8 7 6 6 8 6 8 15 15 13 14 15 15 16 16 15 13 15 17 16 18 18 17 17 15 14 12 8 7 7 7 7 10 8 4 4 4 3 3 7 4 4 12 20 12 12 24 20 7 16 19 16 15 12 13 13 13 14 14 14 14 13 12 11 9 9
8 9 10 11 11 10 9 8 9 10 11 11 12 12 12 11 10 12 14 14 12 11 10 8 5 6 8 9 12 11 10 12 12 13 15 16 15 15 14 17 16 14 17 18 19 21 18 14 8 5 7 7 8 8 10 8 2 2 3 3 1 6 2 5 14 19 11 13 24 17 6 13 12 7 7 9 13 13 14 14 13 13 13 12 11 10 9 7
8 9 10 11 10 9 8 8 8 10 9 8 10 11 11 11 11 14 15 15 14 16 18 16 13 14 13 17 22 11 9 12 10 13 14 14 15 16 16 18 16 13 15 19 21 20 20 17 7 4 4 4 5 7 8 6 1 2 1 2 2 6 2 7 12 16 10 10 21 17 5 13 9 7 8 11 12 13 14 13 11 12 11 10 10 9 8 6
7 7 8 8 8 7 7 6 8 9 7 8 9 9 8 6 9 11 11 11 9 11 10 9 11 12 12 22 26 13 11 13 11 13 13 13 16 16 16 17 17 15 14 18 20 18 19 18 15 13 7 3 3 4 5 3 2 4 3 1 2 2 3 7 10 13 10 7 19 17 2 7 6 7 11 13 14 13 13 13 11 11 10 9 8 8 7 5
7 7 7 7 6 6 5 5 7 8 6 8 7 5 5 4 6 6 7 10 11 10 8 10 12 12 15 20 21 16 15 14 10 9 10 13 14 15 16 17 17 16 15 17 18 20 21 16 16 20 17 7 3 3 4 2 3 9 5 1 5 3 1 7 9 11 8 8 21 15 1 3 5 9 12 13 14 14 13 12 10 10 9 8 6 7 6 4
6 6 7 7 5 4 5 5 7 7 6 7 6 6 6 7 7 7 9 11 13 14 11 13 14 16 21 18 16 20 18 14 11 9 11 13 10 10 14 17 18 17 17 16 16 20 21 18 16 17 19 12 4 4 3 3 4 8 2 1 4 2 4 6 5 8 6 9 21 12 1 1 6 9 11 13 14 14 13 10 9 9 8 7 5 4 3 2
7 7 8 7 5 5 6 7 7 7 7 7 7 8 9 9 10 10 12 11 11 12 10 12 11 13 19 14 13 21 19 16 15 13 14 13 10 9 11 15 18 19 18 16 16 17 15 18 23 20 18 14 4 3 1 2 5 5 2 2 3 2 5 1 4 7 7 9 18 10 2 1 6 9 11 12 12 12 12 10 8 7 7 5 3 2 1 1
8 9 9 8 6 7 8 8 7 7 6 6 6 8 9 10 11 11 13 12 12 13 14 15 14 12 12 9 12 18 21 20 16 12 12 14 13 12 10 10 13 16 17 15 15 14 10 12 19 19 19 16 6 2 1 4 4 4 4 2 3 4 5 3 2 12 11 7 13 9 3 1 5 9 10 10 10 10 11 10 7 6 5 3 2 2 3 4
9 9 9 9 8 8 8 6 5 4 4 4 2 3 6 6 8 10 11 10 10 11 14 15 14 13 12 9 10 14 20 20 16 12 10 12 13 14 11 7 7 9 12 14 14 13 10 10 9 10 15 14 8 6 3 4 4 3 4 3 4 5 5 5 3 9 11 5 7 8 4 3 6 9 10 8 8 9 10 9 7 5 4 3 3 4 4 7
9 9 10 11 10 9 9 9 10 10 10 11 9 8 8 6 4 6 5 4 6 7 9 10 7 8 9 10 9 9 16 20 18 14 10 11 13 15 14 9 5 1 5 11 15 15 11 10 7 4 8 9 8 8 4 2 4 3 4 3 5 6 5 5 5 7 7 3 3 6 5 4 8 7 10 9 6 8 9 8 6 5 3 3 4 5 7 11
9 11 12 11 11 13 15 16 16 16 18 19 20 19 17 17 15 12 13 13 12 7 4 9 9 5 3 10 9 3 12 21 20 15 9 9 13 15 11 7 7 4 4 6 11 16 10 6 7 5 6 8 6 6 4 3 5 5 5 3 5 7 5 6 7 7 6 4 4 5 5 3 7 5 9 9 6 8 8 7 6 4 3 4 6 7 10 14
10 11 10 11 16 18 16 14 12 12 13 13 12 10 8 11 12 15 25 29 23 15 9 11 13 11 7 13 13 5 9 16 20 18 8 6 11 13 9 3 7 11 7 2 4 12 11 6 7 6 5 6 5 5 6 6 6 6 5 2 5 7 6 7 9 8 7 5 4 5 5 3 7 4 7 8 6 8 8 7 6 4 4 5 8 10 13 16
9 10 13 18 19 15 8 7 7 8 8 6 4 3 1 4 5 9 20 25 22 19 17 14 12 12 11 15 17 13 10 9 17 21 11 7 7 6 9 6 5 7 4 2 3 8 11 8 6 6 5 5 4 5 8 9 6 4 2 3 5 5 7 11 9 7 8 5 4 6 5 5 7 4 6 7 7 7 7 7 6 4 4 6 8 12 15 19
12 16 20 19 12 7 6 7 9 9 7 7 8 10 11 12 13 15 16 15 15 16 15 14 14 13 11 12 16 18 15 9 16 23 16 14 11 6 8 9 5 5 5 3 3 3 8 7 4 6 7 6 4 3 9 12 5 1 2 4 5 4 6 10 7 7 8 4 3 5 3 4 5 4 5 5 5 5 5 6 6 5 5 7 10 12 17 23
19 21 18 11 7 7 8 10 10 9 8 9 10 13 15 15 16 17 14 10 10 11 11 13 16 17 13 9 11 17 20 14 14 21 20 16 15 11 9 8 6 6 7 6 4 3 4 4 6 7 8 7 2 4 9 10 5 2 3 4 5 6 6 6 6 10 10 4 2 3 1 3 4 3 3 3 4 5 4 5 7 7 8 10 10 13 20 25
21 16 10 7 8 8 8 7 6 5 6 7 6 8 10 11 10 10 8 6 6 6 8 11 13 17 17 12 10 12 16 16 13 19 21 15 11 10 7 6 5 5 6 6 8 7 4 2 7 8 6 5 4 6 8 7 4 2 2 5 7 8 8 7 8 11 10 3 1 4 2 2 4 4 3 3 4 5 5 6 8 9 12 12 11 15 20 24
14 8 6 5 6 5 5 4 3 4 5 5 5 5 5 4 4 4 2 3 4 3 5 7 9 13 16 15 13 6 5 12 15 17 19 16 12 7 3 4 3 3 3 3 5 7 4 1 5 6 4 6 4 4 6 5 5 2 1 6 8 9 9 10 10 9 6 3 0 3 4 2 5 6 4 3 5 6 7 8 9 10 11 10 13 17 20 25
8 5 4 4 4 4 3 2 3 4 4 4 3 1 2 1 1 2 2 1 2 3 3 5 6 9 13 16 14 3 2 7 11 16 17 15 13 7 2 3 4 3 2 2 2 3 3 3 3 5 5 6 5 3 4 4 4 4 3 7 8 9 9 10 9 6 3 4 3 2 3 4 2 5 5 5 6 5 7 9 11 11 7 10 14 18 24 29
6 5 4 3 3 2 1 2 2 2 3 2 1 1 2 1 1 2 1 1 1 2 4 4 4 7 10 15 14 1 2 4 5 14 19 14 13 9 4 3 3 4 2 1 2 1 2 4 4 5 5 5 4 2 3 4 2 5 7 10 9 10 11 9 8 5 3 5 6 0 3 6 3 3 5 6 6 6 6 7 9 6 7 12 15 21 27 28
4 3 3 2 1 2 1 2 3 2 2 2 2 1 2 1 1 1 0 1 1 2 3 4 3 7 8 12 18 10 4 6 3 11 19 15 13 10 5 4 2 2 2 2 1 1 1 2 3 4 4 4 3 4 3 1 1 6 10 12 11 11 11 9 6 5 3 3 4 2 5 5 4 1 4 5 5 6 5 3 2 4 9 13 18 24 25 27
3 3 3 3 4 4 3 3 3 3 3 3 2 2 2 2 2 1 0 1 1 1 2 3 2 6 6 6 14 13 9 9 5 9 15 15 15 9 4 4 2 2 5 4 2 1 1 1 1 2 3 3 4 6 5 1 4 9 11 12 12 10 9 7 5 4 3 1 2 4 7 4 6 2 4 4 4 4 2 1 3 6 9 13 20 23 24 27
4 4 4 5 6 6 6 6 5 4 3 2 1 2 2 1 1 1 0 2 0 1 2 4 2 7 8 2 6 11 8 8 8 10 10 11 16 14 5 3 4 2 3 6 5 3 3 3 0 1 1 4 7 9 8 7 10 12 10 10 10 7 4 3 4 3 2 2 1 5 7 4 4 2 4 2 3 4 2 3 4 6 10 15 19 23 27 29
6 6 7 8 8 8 7 7 6 4 2 1 3 3 1 1 0 0 1 1 1 1 2 3 2 5 6 1 2 7 5 4 8 8 6 6 13 16 7 3 6 2 2 1 3 2 2 3 1 2 0 6 7 7 6 10 12 9 5 7 7 4 2 1 2 3 1 3 0 6 7 2 3 3 2 3 4 4 4 4 4 7 11 15 18 25 31 30
8 9 10 10 9 8 8 7 5 4 2 2 4 3 0 1 1 1 0 1 1 1 1 1 1 2 2 2 2 4 2 2 6 4 2 2 5 9 8 4 5 2 1 1 1 1 2 1 0 2 1 5 5 5 1 4 5 5 4 6 5 2 2 2 2 1 2 4 0 8 10 3 5 3 3 5 5 5 6 4 5 9 12 15 21 28 28 26
9 9 9 8 8 7 6 6 4 4 5 5 4 1 1 1 0 1 0 1 1 1 1 1 1 1 1 1 2 2 1 2 4 4 2 2 4 4 7 8 6 1 0 3 3 2 1 1 1 1 1 4 3 3 2 0 4 5 5 6 4 3 4 4 4 3 3 5 4 10 10 4 5 3 4 5 7 8 7 5 8 10 12 19 25 26 24 23
6 6 5 4 4 4 4 5 5 5 7 5 2 1 1 0 1 1 0 1 1 1 1 1 0 1 1 2 1 1 0 2 3 5 4 3 4 2 4 7 9 3 1 3 2 1 2 2 2 1 1 2 3 2 1 2 4 3 3 4 4 3 2 2 3 4 6 8 9 10 5 3 5 3 5 5 6 7 6 7 9 10 15 21 24 23 22 22
2 1 1 1 0 1 2 5 6 7 7 4 1 1 0 1 2 1 1 2 2 2 2 1 1 1 1 2 1 1 1 0 1 3 4 3 2 2 2 4 7 5 1 1 1 1 3 2 1 2 3 3 2 1 2 2 2 2 1 3 3 1 2 2 4 5 7 8 8 4 3 3 3 1 5 4 4 7 9 9 10 13 17 21 24 24 21 19
3 2 1 1 2 2 3 6 7 8 7 2 1 1 1 1 1 0 1 1 1 2 3 2 1 1 1 2 1 1 1 1 1 1 2 2 2 2 1 1 4 5 3 1 2 1 3 2 3 2 4 4 2 1 3 4 1 2 2 1 1 1 2 2 5 6 5 5 5 2 4 5 2 1 4 5 3 6 8 9 11 13 16 21 24 22 20 18
5 4 3 2 2 3 5 6 7 8 5 1 1 1 0 0 0 1 2 1 1 1 2 1 0 1 1 1 1 1 2 1 1 0 1 1 1 1 1 2 3 4 4 2 1 1 1 3 3 4 1 1 3 4 5 7 4 1 0 2 1 3 2 1 2 4 2 4 4 3 6 8 5 2 4 3 4 6 5 7 8 11 16 19 21 21 19 19
6 5 4 2 3 4 5 6 7 7 2 2 3 1 0 0 1 1 1 1 1 0 0 1 0 1 0 1 1 1 3 2 0 0 1 1 0 1 1 2 3 4 4 2 1 1 1 2 2 3 3 3 3 4 3 4 7 4 4 0 1 2 0 1 1 2 2 5 5 3 5 7 4 3 3 6 9 8 6 5 6 9 14 19 22 22 20 19
4 4 4 3 3 4 4 6 6 3 0 2 3 1 1 2 2 2 2 1 1 1 0 0 0 1 1 1 0 1 1 2 2 1 1 0 1 0 1 1 2 3 4 2 1 1 0 0 2 1 4 4 3 1 1 1 4 4 3 2 1 1 2 1 1 1 2 3 6 5 7 6 4 1 5 8 8 7 7 6 6 9 15 21 23 22 20 20
1 1 3 3 3 4 5 7 5 2 1 2 2 1 2 3 2 2 2 2 1 1 1 1 1 1 1 0 0 1 1 0 2 1 0 1 1 1 2 2 2 2 3 2 1 2 1 1 2 1 3 3 2 1 1 2 2 1 1 0 0 0 1 1 1 1 2 1 3 5 8 8 4 2 4 7 6 5 7 6 6 11 17 21 22 22 21 20
1 1 1 2 4 5 6 6 5 5 2 2 3 2 1 3 4 3 2 3 2 1 2 1 0 1 1 1 1 0 0 1 0 1 1 1 1 1 2 3 2 1 2 1 0 2 1 1 3 3 2 0 1 2 4 3 4 4 2 2 2 1 1 0 2 1 2 1 2 3 8 10 6 2 4 6 3 6 8 7 7 12 18 21 21 21 20 20
1 0 1 1 5 5 5 5 5 5 2 2 3 3 3 4 4 3 2 3 2 1 2 1 1 2 1 1 1 1 0 1 0 0 0 1 1 1 2 3 3 2 1 0 1 2 1 1 3 5 4 0 2 3 7 8 5 4 2 2 3 3 3 2 3 1 1 2 2 2 6 8 5 5 5 3 4 9 11 9 10 14 18 20 20 21 20 20
1 0 0 2 6 5 4 3 3 4 3 2 4 5 5 3 2 3 3 2 1 1 2 1 1 2 2 1 1 1 0 0 0 0 1 2 2 1 3 3 3 3 1 0 1 2 1 1 3 5 3 1 1 2 6 8 4 1 2 3 3 3 3 3 1 1 0 2 2 2 5 7 5 6 2 6 9 13 13 9 11 14 17 19 20 21 20 19
2 2 2 2 6 4 1 2 2 3 2 2 3 4 3 3 2 2 2 2 1 1 1 2 1 2 2 2 1 1 1 0 1 1 1 1 1 3 4 4 3 3 1 1 1 2 0 1 1 4 4 2 2 2 3 3 1 2 2 4 4 4 4 3 2 3 1 5 6 3 6 8 5 4 7 10 10 14 13 9 11 14 17 19 19 19 19 20
3 2 3 3 4 5 1 2 5 5 3 3 3 2 2 3 2 1 1 2 1 1 1 2 3 3 3 1 1 1 1 0 1 1 1 1 1 3 5 5 5 3 1 1 1 1 1 1 1 2 3 4 4 4 3 2 2 2 3 5 5 6 7 3 2 2 2 5 7 5 8 12 11 10 11 9 8 12 12 10 12 14 17 19 19 19 19 19
1 1 1 2 1 2 4 5 8 8 5 5 3 2 3 2 1 2 2 1 1 2 3 3 3 3 2 1 1 1 2 1 0 0 1 1 2 2 5 7 6 3 2 1 0 0 1 3 4 5 5 5 5 7 6 5 5 6 4 6 7 7 8 4 1 4 4 3 6 10 12 17 20 16 12 10 10 11 10 10 14 16 17 19 18 19 20 20
1 1 1 0 2 5 6 6 8 8 6 6 3 2 4 3 2 3 1 0 3 3 2 2 2 2 3 2 2 2 3 2 1 1 1 1 3 3 4 6 6 6 4 2 1 1 1 3 4 4 8 8 8 12 11 8 8 11 9 7 8 8 8 7 7 10 4 1 8 13 10 14 20 19 15 13 11 9 8 11 15 17 17 19 19 20 20 20
1 2 2 2 1 2 3 3 7 8 6 5 2 2 5 4 3 3 1 0 3 3 1 1 2 4 3 2 1 2 3 2 2 2 0 1 2 3 4 5 5 7 6 4 4 1 0 4 1 0 7 10 10 14 14 10 10 10 11 9 8 10 12 12 15 14 6 4 13 16 12 14 21 20 16 15 13 10 10 14 17 17 17 19 19 20 21 20
1 2 3 3 2 3 3 5 8 9 6 4 2 2 4 5 4 2 2 2 1 3 3 1 2 6 4 3 1 1 2 2 2 2 1 2 2 2 3 2 4 8 7 6 4 2 1 2 1 1 8 11 12 14 12 9 9 10 11 12 9 10 14 15 16 13 10 13 19 20 20 20 21 19 17 18 17 13 14 17 18 17 18 19 19 20 20 20
2 2 3 5 5 6 6 8 8 6 3 1 1 2 4 6 5 3 3 3 2 3 4 2 3 5 4 4 3 1 1 1 0 2 3 3 2 2 3 1 3 6 6 4 2 1 1 0 1 1 6 10 10 9 8 7 9 11 12 12 11 11 11 13 14 11 10 15 18 18 18 19 18 15 16 18 16 13 15 17 17 17 18 19 19 20 20 20
4 3 3 5 4 3 4 5 3 2 1 1 1 3 3 5 7 6 3 1 1 3 4 3 6 6 3 3 4 1 3 3 2 3 4 3 2 3 2 1 4 5 5 2 2 2 2 1 1 2 4 7 4 4 7 8 8 11 14 14 13 12 10 10 10 8 9 12 14 12 12 13 11 8 10 13 14 14 15 16 17 18 18 18 19 20 20 21
4 5 5 4 3 2 3 2 0 0 1 0 1 4 2 4 10 9 3 1 2 3 3 4 7 6 2 2 5 3 4 3 2 3 5 5 4 3 2 1 3 5 5 3 1 1 1 1 2 2 3 6 4 7 10 10 8 7 9 9 11 11 10 10 9 9 12 11 8 8 11 12 9 8 10 12 12 12 14 16 18 19 19 19 20 20 20 22
Wind_Direction
109 108 108 100 94 97 95 88 82 79 85 98 110 115 115 116 113 105 98 93 97 99 99 105 107 106 103 101 92 82 72 54 51 56 48 33 20 19 25 27 27 30 39 45 29 1 358 45 34 353 311 37 43 29 27 14 348 328 270 40 42 38 39 34 37 26 359 352 347 349 352 356 5 17 20 19 79 79 66 72 70 71 72 77 83 79 80 77
101 110 116 111 106 108 100 91 86 82 82 93 110 119 119 117 112 101 90 84 97 108 107 115 122 120 112 109 102 91 76 55 55 51 39 31 29 30 33 33 32 33 35 47 48 22 19 43 18 337 329 53 43 24 33 16 1 0 348 49 55 36 56 54 45 29 13 356 342 354 357 353 360 5 12 22 65 64 56 63 75 80 74 74 76 72 75 69
93 107 118 117 113 113 105 93 84 80 79 83 95 113 122 118 107 96 85 79 86 99 113 140 150 140 125 114 102 94 82 52 43 33 25 32 36 33 36 36 34 39 40 43 48 42 38 36 7 349 27 59 50 40 38 16 3 16 16 62 53 27 68 59 46 34 14 360 354 0 354 347 14 29 26 23 44 48 34 26 67 85 78 78 78 76 77 71
89 103 117 117 113 114 109 93 80 74 76 82 88 100 114 116 110 101 87 78 79 82 80 147 181 164 144 124 99 77 74 50 29 13 15 29 30 32 35 34 37 43 44 41 37 33 31 25 11 19 60 54 53 58 41 21 21 33 34 70 32 16 66 56 46 34 13 14 9 359 349 353 43 49 41 43 47 37 31 44 70 87 84 86 83 79 79 75
92 105 117 117 109 112 114 100 84 71 71 83 94 100 108 113 111 99 78 71 81 77 67 80 110 155 169 168 7 345 318 27 19 9 20 26 25 30 30 32 40 47 44 36 28 21 11 360 29 41 58 43 43 58 35 23 34 60 60 67 40 28 67 57 46 33 17 24 15 1 343 330 51 55 52 64 73 48 46 62 78 85 84 88 85 82 80 75
103 111 118 118 110 116 124 113 90 73 71 79 100 112 110 109 105 85 57 63 91 87 80 88 94 107 127 101 76 60 56 81 15 14 24 22 24 29 28 32 41 47 44 40 37 33 28 38 59 48 67 61 41 51 29 23 33 78 72 61 54 51 74 68 46 40 33 33 18 356 340 345 76 72 64 73 82 78 73 80 86 89 92 94 88 84 81 77
108 114 119 116 113 124 129 119 95 80 76 78 102 122 118 110 93 70 48 56 97 105 91 93 97 98 99 90 81 77 74 62 25 23 24 20 24 30 29 35 45 42 45 52 44 39 42 48 49 41 70 75 38 47 30 36 48 65 81 53 67 76 82 90 47 33 39 49 14 351 352 49 89 84 76 79 90 92 91 97 97 100 99 93 87 83 82 81
111 109 118 117 114 122 124 119 100 89 89 87 103 117 116 104 86 73 55 67 103 123 114 103 103 97 91 92 73 61 53 35 30 28 22 20 25 30 28 40 48 35 42 57 50 52 53 45 36 36 71 55 36 49 12 35 60 52 45 31 85 100 72 80 45 28 38 51 10 350 12 88 99 94 88 89 103 103 101 105 100 101 97 90 88 86 88 88
112 107 122 120 112 114 113 113 102 100 102 97 104 107 103 92 86 82 74 86 100 121 143 135 124 86 74 89 72 53 32 18 27 21 22 24 26 32 31 47 52 34 42 58 59 63 56 41 34 38 84 67 57 59 22 39 67 32 40 356 86 109 71 65 43 25 28 33 10 346 13 108 119 98 84 97 113 114 110 107 103 103 98 95 94 91 94 90
118 115 123 118 111 112 106 105 107 115 114 101 104 103 96 88 88 92 85 87 91 97 108 113 113 87 92 87 76 63 21 23 24 17 27 27 27 36 39 50 56 41 45 59 62 65 57 39 30 48 86 79 66 64 46 53 54 15 53 324 56 120 99 63 51 27 13 16 7 342 8 104 126 92 88 122 123 124 117 110 107 106 103 103 103 98 96 88
122 114 115 115 114 114 106 105 116 130 122 101 109 108 97 87 88 97 92 85 90 102 97 91 85 81 95 82 70 57 22 33 24 25 32 26 30 37 41 49 57 53 51 63 63 65 62 41 35 113 84 58 70 78 73 69 46 345 321 229 153 152 127 56 59 29 5 10 0 338 30 86 79 73 125 144 138 134 121 117 115 111 111 110 111 106 101 92
112 105 106 117 121 119 113 114 129 139 122 101 114 109 90 84 96 100 91 76 88 118 104 78 73 73 76 64 56 41 35 41 25 30 28 22 34 37 45 50 53 61 61 66 64 63 65 45 45 66 41 14 102 105 95 77 38 13 351 181 71 163 140 74 70 27 7 13 358 340 13 83 59 97 135 147 145 139 125 125 121 115 116 112 113 109 105 94
106 111 112 125 129 129 129 136 142 141 118 105 110 95 75 77 100 100 77 72 80 101 98 76 81 84 78 61 46 40 45 40 27 35 23 23 35 35 51 56 51 62 65 70 70 61 60 49 47 52 39 42 112 113 128 174 40 34 17 10 19 331 315 69 62 19 15 16 2 353 338 80 96 124 143 153 150 142 133 131 127 122 118 116 118 113 111 104
112 122 132 143 143 141 140 146 146 136 118 106 95 84 85 78 92 99 85 89 91 95 94 80 75 73 78 73 44 39 43 38 41 56 40 37 47 39 55 62 54 61 69 70 70 63 61 56 57 54 35 34 108 134 147 187 39 33 349 318 38 339 330 53 67 12 25 10 2 4 298 95 129 143 151 159 159 146 136 132 131 130 125 129 134 123 126 128
124 137 151 159 150 140 132 136 138 132 121 105 89 87 92 86 89 92 86 92 98 96 92 81 74 68 76 75 41 37 39 39 46 58 49 46 63 57 58 67 62 62 65 58 51 55 56 51 56 56 32 28 85 170 183 108 48 30 11 8 37 344 322 52 113 28 26 356 356 2 287 113 135 152 157 165 167 148 133 133 136 134 133 139 156 166 188 266
140 151 160 159 146 137 128 129 128 125 126 113 91 85 98 93 83 91 95 90 91 93 89 88 89 86 80 66 42 35 32 35 41 53 54 47 56 57 54 66 66 63 59 43 32 34 28 37 54 56 38 32 30 291 153 76 30 23 24 345 355 348 317 299 61 27 26 2 350 347 297 323 131 149 156 166 168 147 132 134 138 141 146 156 196 223 262 281
149 156 161 152 142 135 123 119 116 117 130 128 96 92 118 94 73 101 104 84 81 86 86 93 96 85 72 55 42 25 23 31 36 43 57 52 56 66 64 57 48 62 63 46 35 34 32 35 49 54 41 39 20 2 77 48 348 354 3 328 339 333 306 310 343 13 25 37 346 323 308 72 113 142 150 157 165 149 134 137 147 155 161 191 228 257 278 290
150 150 148 143 137 125 114 107 100 99 98 98 94 95 102 78 78 129 124 86 90 87 74 78 84 78 60 32 18 9 24 34 27 26 53 61 62 67 60 47 24 60 89 53 38 34 43 49 49 63 38 40 32 27 67 20 319 322 333 319 332 322 300 317 324 348 10 22 315 303 312 85 112 137 143 145 157 148 138 141 155 166 182 224 252 272 285 298
147 141 139 138 130 118 115 107 97 99 100 101 99 93 87 83 86 90 86 82 77 72 51 40 42 83 76 17 13 1 37 37 24 22 56 67 63 57 42 46 47 59 94 60 36 32 42 61 46 48 26 22 27 30 40 321 297 287 291 300 331 317 298 319 325 336 352 331 305 301 313 96 120 129 135 141 154 145 142 149 160 178 206 249 268 279 293 307
151 148 145 136 128 122 115 102 97 110 114 116 108 90 81 83 76 64 69 72 69 73 84 64 60 81 76 33 35 53 48 37 25 29 51 65 64 51 30 53 54 53 69 56 41 41 47 68 45 27 10 6 356 352 358 331 286 263 271 317 328 304 301 322 317 325 352 345 295 290 313 99 120 124 132 143 154 144 152 165 171 193 223 263 277 289 307 315
156 152 141 131 128 123 105 84 100 129 132 132 107 66 77 105 101 81 73 71 70 74 75 69 64 63 56 43 42 47 51 35 26 35 51 59 63 46 29 45 42 41 70 146 128 64 48 58 47 16 348 346 317 312 347 336 286 247 287 331 325 309 314 311 303 326 350 336 279 298 328 102 118 122 135 152 160 153 171 181 181 202 234 266 287 303 314 315
147 137 130 127 124 108 86 90 98 108 105 96 93 91 98 103 102 99 92 84 75 71 69 64 56 48 46 46 42 44 46 31 21 30 44 55 60 64 40 50 57 30 44 95 141 73 48 54 29 354 332 319 272 291 350 338 305 172 27 334 323 334 322 301 300 332 332 308 276 311 337 113 117 110 123 143 141 140 171 178 185 208 236 261 285 304 312 316
136 130 124 116 105 95 100 102 96 94 85 82 96 99 99 100 95 92 96 101 84 70 68 61 50 40 35 36 35 42 46 38 13 12 24 44 55 56 41 46 70 47 37 51 62 54 58 48 359 333 314 310 312 35 6 341 336 59 37 351 323 334 337 304 310 322 316 300 280 308 319 125 122 114 100 106 117 131 155 173 199 220 237 252 282 310 318 323
133 126 117 102 98 98 107 106 87 82 76 74 99 109 105 100 96 96 94 102 100 75 55 48 42 33 29 24 21 35 45 42 23 7 16 33 44 48 41 33 57 63 59 69 81 82 80 20 336 312 300 328 4 37 16 346 348 51 64 12 330 323 327 303 307 317 314 309 317 321 302 163 168 178 153 148 162 162 176 202 222 237 246 260 300 321 322 326
134 125 115 104 100 100 110 106 66 61 67 76 101 118 124 109 104 120 116 113 105 64 36 38 32 21 19 17 14 25 57 43 30 12 16 32 36 46 55 23 31 62 61 66 91 87 70 15 311 310 342 7 8 40 25 354 333 297 67 8 330 310 312 302 306 318 318 300 322 355 325 246 177 185 180 171 190 188 193 216 240 247 253 287 324 330 328 328
140 140 134 117 110 110 107 68 30 39 47 75 99 135 159 195 226 207 234 171 73 4 4 15 14 12 12 10 2 344 114 45 26 16 22 35 34 42 48 19 52 65 34 20 80 92 28 9 340 346 4 9 18 51 40 16 338 299 310 344 322 305 305 297 302 313 308 295 295 28 360 312 204 189 188 175 200 209 195 217 239 246 274 329 338 335 333 329
147 146 146 133 130 133 104 341 335 12 31 41 37 211 207 261 233 222 252 121 41 335 359 3 9 21 21 16 14 74 144 3 3 19 27 34 33 44 50 19 69 72 61 58 45 52 8 17 17 4 4 19 21 4 24 37 349 288 305 322 310 297 290 280 288 282 259 301 294 89 30 311 275 189 183 177 202 219 208 225 235 253 321 341 337 332 331 327
162 161 165 169 203 235 257 299 301 328 344 329 332 230 219 263 229 241 283 109 347 319 14 20 32 36 37 33 38 65 58 5 6 18 23 30 29 44 66 31 35 41 57 144 144 343 7 34 16 356 4 20 360 316 318 35 248 271 297 306 294 282 270 259 264 262 267 334 301 350 20 310 281 181 179 185 203 215 218 238 257 328 335 334 330 326 325 327
198 208 225 251 260 262 270 281 291 308 312 314 318 223 220 248 240 294 359 210 329 39 32 18 17 13 13 35 41 46 38 30 27 10 23 30 22 31 90 60 21 327 14 42 137 166 111 84 10 4 21 354 321 298 291 214 230 270 291 297 289 278 259 239 227 242 275 318 278 357 24 332 298 293 173 194 216 217 230 275 303 320 325 326 322 320 323 330
230 240 256 266 269 274 275 277 280 283 295 303 258 191 198 226 236 10 358 239 345 71 20 22 13 347 349 20 48 31 29 35 11 360 26 35 25 30 73 62 4 295 19 36 72 118 148 147 113 86 60 319 299 286 270 228 241 270 294 303 297 282 251 223 200 200 267 255 239 13 26 22 309 262 150 174 194 178 220 278 288 306 315 317 320 328 335 336
247 256 267 271 273 277 273 274 273 264 283 266 185 169 185 253 308 133 231 259 6 17 15 38 23 349 3 84 55 13 17 31 7 4 21 28 26 26 36 24 354 351 171 43 64 100 173 175 170 142 17 321 310 295 254 221 246 277 308 313 311 290 242 265 210 163 271 271 72 11 2 25 266 265 129 151 163 159 205 244 280 301 307 312 326 338 339 336
266 268 272 272 273 273 267 268 263 233 215 174 169 166 241 295 36 125 208 336 344 349 51 71 18 351 23 78 42 7 3 345 1 15 20 27 37 29 42 45 344 353 137 342 18 121 199 206 143 150 312 327 320 319 299 198 267 314 339 333 345 343 351 1 315 177 241 250 17 353 336 297 245 253 148 168 182 192 206 223 273 286 300 321 337 339 337 334
276 275 274 274 271 267 259 251 231 198 179 162 167 186 310 267 249 116 76 348 326 4 110 139 31 287 262 52 29 355 315 270 337 346 318 69 86 72 73 56 8 317 211 341 336 321 303 321 339 163 331 352 2 354 17 351 324 350 1 358 20 19 4 350 323 325 278 257 303 321 311 281 266 252 170 174 184 193 212 244 256 270 306 331 338 337 333 331
280 279 275 275 266 252 240 215 190 173 167 166 189 261 359 229 208 234 211 95 116 120 109 123 249 267 353 66 71 328 317 231 320 345 342 48 72 55 65 43 19 5 292 329 345 319 292 288 292 243 291 5 35 56 185 268 315 342 19 30 54 65 33 319 313 323 301 292 302 300 277 265 290 261 169 174 188 197 221 244 252 281 315 330 336 334 332 329
299 305 280 312 290 207 186 170 167 162 161 168 243 266 134 158 166 210 195 126 127 162 144 143 232 237 71 79 139 277 52 279 317 1 16 30 38 15 10 10 13 16 332 312 22 307 271 244 191 32 40 56 57 289 270 289 283 286 51 71 51 71 189 251 264 260 274 291 299 287 225 238 269 154 145 161 193 208 222 250 280 301 318 333 337 334 331 329
31 41 54 50 74 122 145 153 158 157 160 184 291 211 165 168 168 22 40 112 117 146 152 157 267 254 170 142 144 290 315 5 321 357 53 50 35 45 74 40 13 22 42 23 17 354 298 259 166 90 35 43 65 26 351 6 310 283 6 40 26 120 165 237 266 263 264 274 284 300 288 285 335 65 176 173 203 230 248 283 301 310 326 337 335 332 332 330
34 34 39 62 100 124 136 148 154 159 172 291 13 141 171 229 273 16 24 49 108 128 159 173 308 359 154 132 104 333 320 320 277 333 105 130 70 37 72 96 37 32 65 59 3 92 315 282 208 170 101 46 99 85 42 19 357 326 154 295 322 113 129 212 275 299 302 273 279 305 299 302 327 308 217 214 294 286 288 309 314 321 333 336 332 332 332 327
21 25 29 58 126 136 136 144 150 158 178 45 87 105 287 146 75 83 96 66 72 88 208 208 24 74 42 359 125 301 336 2 326 333 99 160 255 359 44 86 67 55 63 39 7 123 193 288 240 178 142 149 133 90 57 6 359 33 131 240 3 114 272 296 300 312 311 302 298 294 304 297 269 262 301 315 308 300 303 315 324 333 338 338 334 332 330 327
7 22 22 43 133 137 127 139 145 157 262 92 133 158 99 104 92 116 148 131 74 57 98 80 61 103 39 10 167 271 357 17 340 325 94 16 305 49 74 80 95 74 48 26 10 326 227 154 273 215 115 136 160 85 158 222 2 31 117 96 57 165 215 229 310 255 224 300 306 307 321 302 229 251 328 306 288 299 323 331 338 341 340 337 333 329 329 328
339 53 19 33 128 130 129 138 120 63 20 78 114 138 107 118 133 138 148 142 107 48 60 44 202 151 96 115 221 17 79 16 324 315 86 5 329 77 71 56 85 74 33 37 10 315 293 204 277 324 92 121 177 331 321 170 123 100 164 146 279 200 144 163 220 167 166 252 292 309 308 284 261 338 308 273 272 312 337 341 337 337 337 334 330 327 326 325
131 148 5 54 125 127 127 120 73 53 85 80 63 68 105 124 128 129 139 138 103 64 74 52 49 125 98 123 154 38 253 232 333 338 341 52 54 28 80 76 65 44 17 44 181 321 313 268 293 298 292 241 155 352 355 35 109 123 149 171 164 137 92 322 283 165 129 183 204 287 292 279 277 272 239 251 294 345 348 351 342 333 333 330 326 325 322 320
135 279 326 128 145 137 114 84 40 33 77 88 67 76 101 121 125 132 142 129 106 98 115 89 37 41 50 73 106 116 248 236 146 316 316 99 52 20 115 112 79 77 73 86 127 87 51 286 285 278 276 49 79 22 25 32 59 104 127 142 130 149 172 215 272 259 199 227 207 231 264 273 256 191 205 267 346 353 349 352 344 330 328 325 322 323 321 317
223 255 304 174 163 148 112 86 50 38 57 81 77 79 86 92 115 155 179 178 166 163 145 129 33 37 43 26 99 137 115 316 122 65 98 104 63 77 139 131 105 100 106 188 122 83 100 211 255 271 268 108 57 357 27 27 26 89 178 177 158 172 177 173 194 53 329 233 209 214 250 269 244 195 258 329 340 344 341 341 340 327 321 321 318 320 320 316
131 90 72 157 178 181 146 110 110 91 103 115 91 82 80 64 82 143 186 194 180 195 143 125 77 88 84 21 22 99 64 57 85 67 89 97 101 159 159 144 133 107 74 166 72 16 298 186 254 298 302 326 337 329 3 9 313 241 209 182 175 148 111 90 99 85 326 222 195 203 254 263 250 250 314 329 331 334 331 329 334 324 317 319 317 316 317 316
101 67 57 86 185 204 183 134 141 132 139 132 111 132 127 73 56 80 84 116 118 3 104 122 99 102 98 46 36 61 50 159 116 80 104 69 95 171 178 170 153 110 80 164 64 24 264 265 279 310 324 326 320 312 324 341 280 251 155 165 176 153 146 143 128 150 249 221 190 209 259 274 284 290 304 317 323 323 322 323 325 319 317 317 313 313 315 315
26 5 52 51 89 121 92 121 138 132 149 152 121 170 169 99 89 140 88 99 159 92 87 116 122 113 103 118 173 180 174 165 55 25 195 148 117 166 193 184 170 160 192 201 55 126 246 276 248 233 248 262 275 281 298 326 297 278 239 192 186 174 173 163 131 214 231 225 226 238 254 275 288 293 300 312 316 312 314 321 322 318 316 313 310 311 312 311
290 226 203 81 74 82 80 107 126 125 155 167 132 148 153 116 130 158 74 344 170 144 84 90 146 148 138 155 201 195 167 150 113 104 237 172 107 124 184 187 189 203 203 180 183 170 247 268 248 235 247 253 269 280 288 297 277 268 265 226 185 176 176 171 202 228 233 352 269 257 251 270 284 291 299 306 307 305 310 318 318 315 310 309 309 308 307 307
256 199 186 171 148 78 77 124 130 118 126 137 107 126 142 136 163 177 160 88 169 189 189 94 215 210 167 135 170 168 157 185 195 165 159 190 131 136 176 188 192 194 175 157 180 166 287 264 254 241 265 266 271 274 275 272 260 255 258 247 207 183 181 196 225 234 222 231 258 268 277 278 281 287 294 297 296 300 309 313 312 307 304 307 307 304 303 301
176 163 165 157 122 88 105 134 136 120 104 103 117 164 165 167 175 164 126 127 193 224 209 173 205 201 178 131 110 173 174 196 223 217 150 169 194 184 186 195 181 182 175 163 176 182 208 254 311 305 283 284 278 272 265 255 257 258 254 253 243 213 198 209 234 238 226 236 253 270 281 277 275 281 285 286 287 293 304 307 305 302 304 306 303 298 297 295
227 194 158 133 98 84 105 129 137 129 110 97 147 176 178 179 179 158 147 167 183 190 198 195 149 153 147 149 173 241 103 107 255 232 166 155 204 215 206 197 137 172 194 178 151 186 193 246 33 355 297 294 280 269 257 242 256 269 266 259 253 246 228 224 238 240 234 247 255 264 274 274 272 272 269 273 283 295 301 301 300 301 303 303 298 293 290 290
251 250 175 128 99 86 114 131 140 131 142 207 186 164 189 204 183 155 132 198 174 147 174 162 132 122 105 168 200 191 86 99 102 153 171 179 197 188 186 118 109 149 191 187 135 165 176 264 336 39 317 292 287 296 285 280 279 273 272 266 253 248 240 227 230 218 210 238 256 262 267 269 273 272 264 273 289 297 296 298 299 299 299 296 293 288 283 287
250 226 186 142 105 125 151 156 256 305 155 189 135 147 179 186 162 151 134 271 155 138 148 138 135 139 130 186 201 171 135 169 192 187 205 214 209 200 202 192 140 149 164 153 143 177 144 275 322 31 300 278 325 337 311 311 313 281 261 250 235 234 238 236 239 227 213 224 250 256 253 262 282 297 284 286 295 293 293 298 298 297 297 294 290 282 278 286